Terminal Aerodrome Forecast
Issued by NWS Mt. Holly, NJ

Home | Current Version | Previous Version | Text Only | Print | Product List | Glossary On
Versions: 1 2 3 4 5 6 7 8 9 10 11 12 13 14 15 16 17 18 19 20 21 22 23 24 25 26 27 28 29 30 31 32 33 34 35 36 37 38 39 40 41 42 43 44 45 46 47 48 49 50
000
FTAK31 PANC 261742
TAFABE
TAF
PABE 261742Z 2618/2718 30007KT P6SM VCFG SCT004 BKN008
     FM262100 03005KT P6SM FEW008 SCT012 BKN025
     FM270200 06009KT 6SM -SN SCT012 BKN025
     FM270600 14014KT P6SM SCT035 BKN100=

USA.gov is the U.S. government's official web portal to all federal, state and local government web resources and services.